[[{"header":{"parameterUnit":"m.s-1","parameterCategory":1,"la1":30.2991,"la2":30.254,"lo1":-89.0895,"lo2":-89.0444,"dy":0.0017,"dx":0.0017,"nx":28,"ny":28,"refTime":"2024-04-22T09:00:00:Z","depth":0,"parameterNumber":2,"parameterNumberName":"U-component_of_WINDS"},"data":[0,0,0,0,0,0,0,0,0,0,0,0,0,0,0,0,0,0,0,0,0,0,0,0,0,0,0,0,0,0,0,0,0,0,0,0,0,0,0,0,0,0,0,0,0,0,0,0,0,0,0,0,0,0,0,0,0,0,-3.7472,-3.7472,0,-3.7511,-3.7512,-3.7512,-3.7392,-3.7388,-3.7384,-3.7381,-3.7423,-3.7427,-3.7432,0,0,0,0,0,0,0,0,0,0,0,0,0,-3.7293,-3.7297,-3.7472,-3.7472,-3.7473,-3.7511,-3.7512,-3.7512,-3.7392,-3.7388,-3.7383,-3.7379,-3.7422,-3.7427,-3.7432,0,0,0,0,0,0,0,0,0,0,0,0,0,-3.7355,-3.7298,-3.7472,-3.7418,-3.7413,-3.7511,-3.7512,-3.7512,-3.7393,-3.7388,-3.7382,-3.7377,-3.742,-3.7426,-3.7433,-3.7586,0,0,-3.7454,-3.7457,0,0,0,0,0,0,0,0,-3.7352,-3.7362,-3.7425,-3.7421,-3.7417,-3.7441,-3.7464,-3.7537,-3.7395,-3.7401,-3.7381,-3.7374,-3.7434,-3.7439,-3.7459,-3.7588,-3.759,-3.7455,-3.7459,-3.7462,-3.7464,0,0,0,0,0,0,0,-3.7348,-3.736,-3.7487,-3.7426,-3.7421,-3.7391,-3.7394,-3.7477,-3.7448,-3.74,-3.7391,-3.7397,-3.743,-3.7452,-3.7459,-3.7591,-3.7454,-3.7461,-3.7465,-3.7467,-3.7845,-3.7851,0,0,0,0,0,0,-3.735,-3.7357,-3.7486,-3.7489,-3.737,-3.7399,-3.7402,-3.7439,-3.7447,-3.7442,-3.7402,-3.7392,-3.7443,-3.7451,-3.746,-3.7637,-3.7462,-3.7468,-3.7472,-3.7839,-3.7846,-3.7853,0,0,0,0,0,0,-3.7347,-3.7363,-3.7485,-3.742,-3.7434,-3.7408,-3.745,-3.7442,-3.7464,-3.7448,-3.7442,-3.743,-3.7439,-3.745,-3.7555,-3.7637,-3.7471,-3.7477,-3.7832,-3.7841,-3.785,-3.7994,0,0,0,0,0,0,-3.7342,-3.7363,-3.742,-3.7423,-3.7438,-3.7579,-3.7455,-3.7447,-3.7476,-3.7463,-3.7473,-3.7469,-3.7436,-3.7545,-3.7562,-3.7643,-3.7483,-3.7825,-3.7836,-3.7847,-3.7982,-3.8007,-3.8028,0,0,0,0,0,-3.7337,-3.7461,-3.7424,-3.744,-3.7509,-3.7584,-3.7593,-3.7551,-3.7483,-3.7541,-3.753,-3.7469,-3.7626,-3.7557,-3.7574,-3.7659,-3.7819,-3.7833,-3.7846,-3.7971,-3.8002,-3.8028,0,0,0,0,0,0,-3.7469,-3.746,-3.7419,-3.7548,-3.7568,-3.7564,-3.7635,-3.7585,-3.7625,-3.7611,-3.7559,-3.7562,-3.7676,-3.7678,-3.7602,-3.7807,-3.7711,-3.7728,-3.78,-3.7829,-3.7852,-3.7848,-3.7488,0,0,0,0,0,-3.7514,-3.7575,-3.7564,-3.7678,-3.769,-3.7662,-3.7693,-3.7659,-3.7677,-3.7685,-3.7683,-3.7704,-3.7757,-3.7794,-3.7843,-3.7983,-3.7982,-3.8049,-3.8073,-3.8092,-3.8107,-3.8178,-3.8208,-3.7897,-3.7896,-3.7896,0,0,-3.7605,-3.7608,-3.765,-3.7705,-3.7716,-3.778,-3.7669,-3.7743,-3.779,-3.7697,-3.7794,-3.7794,-3.7814,-3.7936,-3.799,-3.7942,-3.8193,-3.8109,-3.8124,-3.8128,-3.8195,-3.8225,-3.8251,-3.7906,-3.7904,-3.7903,0,0,-3.7805,-3.7814,-3.7909,-3.7923,-3.7941,-3.7921,-3.7944,-3.7948,-3.7943,-3.804,-3.7971,-3.8027,-3.8122,-3.8138,-3.8158,-3.8364,-3.8308,-3.8382,-3.8502,-3.8572,-3.8597,-3.8618,-3.8689,-3.8715,-3.8397,-3.8397,-3.8398,0,-3.7917,-3.8011,-3.7964,-3.8042,-3.8067,-3.7986,-3.808,-3.8096,-3.8131,-3.815,-3.8095,-3.821,-3.8218,-3.8342,-3.8392,-3.8413,-3.8436,-3.8379,-3.8597,-3.8618,-3.8637,-3.8704,-3.8731,-3.8406,-3.8405,-3.8404,-3.8403,0,-3.8146,-3.8212,-3.8287,-3.832,-3.8354,-3.8441,-3.8407,-3.8447,-3.8411,-3.8397,-3.8496,-3.8503,-3.855,-3.8578,-3.8544,-3.8697,-3.8666,-3.8606,-3.8508,-3.8676,-3.8738,-3.8763,-3.8418,-3.8415,-3.8413,-3.8411,0,0,-3.8429,-3.8435,-3.8463,-3.8476,-3.849,-3.854,-3.8623,-3.8669,-3.8703,-3.873,-3.8797,-3.8878,-3.8821,-3.8845,-3.8812,-3.8875,-3.9034,-3.8806,-3.8805,-3.8846,-3.92,-3.9244,-3.9274,-3.8998,-3.9003,-3.9007,-3.9198,0,-3.8623,-3.8762,-3.8723,-3.8863,-3.8922,-3.8846,-3.8917,-3.8934,-3.8923,-3.8972,-3.8961,-3.9018,-3.8941,-3.8954,-3.9013,-3.9002,-3.9104,-3.8988,-3.9058,-3.9061,-3.9053,-3.9307,-3.9353,-3.9533,-3.9222,-3.9226,-3.9229,0,-3.8867,-3.8902,-3.9047,-3.905,-3.9073,-3.9138,-3.9176,-3.9225,-3.9242,-3.9229,-3.9256,-3.921,-3.929,-3.9195,-3.9304,-3.9226,-3.9253,-3.9252,-3.9258,-3.9261,-3.9153,-3.9314,-3.959,-3.9616,-3.9267,-3.9264,-3.9261,0,-3.9055,-3.9139,-3.9235,-3.925,-3.9256,-3.9303,-3.9308,-3.932,-3.9349,-3.9383,-3.9401,-3.9445,-3.9468,-3.9503,-3.947,-3.9403,-3.9584,-3.9485,-3.9574,-3.9575,-3.9613,-3.9611,-3.9895,-3.9636,-3.9636,-3.9635,-3.9635,0,-3.9274,-3.9365,-3.9319,-3.9379,-3.9479,-3.9433,-3.9533,-3.953,-3.9541,-3.9598,-3.9536,-3.9591,-3.9545,-3.9597,-3.9572,-3.9665,-3.9677,-3.9668,-3.966,-3.9672,-3.9673,-3.9687,-3.9672,-3.9643,-3.9641,-3.964,-3.9638,0,-3.9499,-3.9473,-3.9573,-3.9571,-3.9572,-3.9646,-3.9644,-3.9699,-3.9684,-3.9757,-3.9771,-3.9748,-3.9805,-3.9776,-3.9836,-3.9819,-3.9938,-3.9915,-3.9932,-3.9925,-4.0014,-4.0005,-4.0314,-4.0351,-4.0072,-4.0075,-4.0077,0,-3.9639,-3.9707,-3.9712,-3.9746,-3.9754,-3.981,-3.9839,-3.9797,-3.983,-3.9854,-3.9906,-3.9958,-3.9996,-4.0091,-4.0079,-4.0124,-4.0099,-4.0205,-4.0105,-4.0115,-4.0097,-4.0092,-4.0098,-4.0224,-4.0227,-4.023,-4.0232,0,-3.9889,-3.9872,-3.9917,-3.9957,-3.9993,-4.0023,-4.0047,-4.0079,-4.0037,-4.0078,-4.0134,-4.0164,-4.0224,-4.0276,-4.0314,-4.0319,-4.0269,-4.0263,-4.0286,-4.0297,-4.0303,-4.0298,-3.9983,-4.0256,-4.0253,-4.0252,-4.025,-4.0249,-4.0074,-4.013,-4.0142,-4.0193,-4.0207,-4.0231,-4.0281,-4.0272,-4.0319,-4.0363,-4.0336,-4.0403,-4.0417,-4.0464,-4.0476,-4.0527,-4.0485,-4.0518,-4.0526,-4.0534,-4.0545,-4.0298,-4.0534,-4.0534,-4.0533,-4.0532,-4.0532,0,-4.0318,-4.0321,-4.0369,-4.0404,-4.0445,-4.0394,-4.0418,-4.0455,-4.0513,-4.0531,-4.057,-4.0635,-4.0684,-4.0677,-4.0721,-4.0764,-4.0742,-4.0777,-4.0772,-4.0773,-4.0581,-4.0556,-4.0794,-4.0794,-4.0794,-4.0794,-4.0794,-4.0794,-4.0449,-4.054,-4.0525,-4.0623,-4.0626,-4.0689,-4.0707,-4.0729,-4.0742,-4.0817,-4.0857,-4.0852,-4.0859,-4.0904,-4.0947,-4.0943,-4.0962,-4.1005,-4.0993,-4.0813,-4.0787,-4.0762,-4.0738,-4.101,-4.101,-4.118,-4.1181,-4.1183]},{"header":{"parameterUnit":"m.s-1","parameterCategory":1,"la1":30.2991,"la2":30.254,"lo1":-89.0895,"lo2":-89.0444,"dy":0.0017,"dx":0.0017,"nx":28,"ny":28,"refTime":"2024-04-22T09:00:00:Z","depth":0,"parameterNumber":3,"parameterNumberName":"V-component_of_WINDS"},"data":[0,0,0,0,0,0,0,0,0,0,0,0,0,0,0,0,0,0,0,0,0,0,0,0,0,0,0,0,0,0,0,0,0,0,0,0,0,0,0,0,0,0,0,0,0,0,0,0,0,0,0,0,0,0,0,0,0,0,0.5552,0.5552,0,0.5508,0.5508,0.5507,0.537,0.5367,0.5364,0.5361,0.5321,0.5323,0.5325,0,0,0,0,0,0,0,0,0,0,0,0,0,0.5524,0.5525,0.5552,0.5552,0.5551,0.5508,0.5508,0.5507,0.537,0.5367,0.5363,0.5359,0.5321,0.5323,0.5325,0,0,0,0,0,0,0,0,0,0,0,0,0,0.5514,0.5525,0.5552,0.5478,0.547,0.5508,0.5508,0.5507,0.5371,0.5367,0.5362,0.5358,0.532,0.5323,0.5325,0.5434,0,0,0.5334,0.5335,0,0,0,0,0,0,0,0,0.5514,0.5515,0.5489,0.5483,0.5475,0.544,0.5483,0.5483,0.5372,0.5409,0.5361,0.5355,0.5365,0.5364,0.5366,0.5432,0.543,0.5334,0.5335,0.5337,0.5337,0,0,0,0,0,0,0,0.5515,0.5516,0.5535,0.5489,0.548,0.5448,0.5442,0.5482,0.5413,0.5405,0.5395,0.5392,0.536,0.5363,0.5364,0.543,0.5334,0.5336,0.5338,0.5339,0.5584,0.5589,0,0,0,0,0,0,0.5526,0.5518,0.5536,0.5534,0.5484,0.5452,0.5445,0.5456,0.5412,0.5401,0.5396,0.5386,0.5361,0.5361,0.5362,0.5486,0.5337,0.5339,0.5341,0.558,0.5585,0.5591,0,0,0,0,0,0,0.5526,0.5529,0.5538,0.5523,0.5521,0.5458,0.5471,0.5457,0.546,0.5405,0.5393,0.5411,0.5357,0.5358,0.5417,0.5483,0.534,0.5343,0.5574,0.5581,0.5588,0.5737,0,0,0,0,0,0,0.5526,0.553,0.5569,0.5525,0.5523,0.5593,0.5475,0.546,0.5465,0.5451,0.5416,0.5406,0.5354,0.5413,0.542,0.5484,0.5345,0.5568,0.5577,0.5586,0.5725,0.5748,0.5767,0,0,0,0,0,0.5525,0.5613,0.5571,0.5574,0.557,0.5597,0.5596,0.5532,0.547,0.551,0.5475,0.5407,0.5475,0.5421,0.5426,0.5493,0.5563,0.5574,0.5585,0.5716,0.5744,0.5767,0,0,0,0,0,0,0.5668,0.5606,0.5559,0.5635,0.5622,0.5573,0.5621,0.5563,0.5568,0.5555,0.5478,0.5471,0.5542,0.5523,0.5464,0.5596,0.5508,0.5521,0.5606,0.5631,0.5652,0.5655,0.5347,0,0,0,0,0,0.5708,0.5733,0.5678,0.5751,0.5747,0.5686,0.5695,0.5647,0.5631,0.5625,0.5594,0.5583,0.5601,0.5615,0.5629,0.5722,0.5714,0.5771,0.5792,0.581,0.5822,0.5871,0.5896,0.5627,0.5627,0.5627,0,0,0.5792,0.5761,0.5782,0.5779,0.5763,0.5793,0.5682,0.5717,0.5739,0.5631,0.5684,0.5662,0.5644,0.5721,0.5753,0.5707,0.5894,0.5824,0.5838,0.584,0.5885,0.591,0.5933,0.5634,0.5633,0.5632,0,0,0.596,0.5939,0.5997,0.5983,0.596,0.5919,0.5934,0.5894,0.5874,0.5926,0.5846,0.5872,0.5905,0.5896,0.5896,0.6062,0.6001,0.6069,0.6179,0.6228,0.6249,0.6267,0.6327,0.635,0.6081,0.6082,0.6082,0,0.6067,0.6106,0.6035,0.6076,0.6077,0.598,0.6039,0.603,0.6014,0.6019,0.5967,0.6008,0.5989,0.6063,0.6104,0.6106,0.6122,0.6072,0.6251,0.6269,0.6285,0.6342,0.6364,0.609,0.6089,0.6088,0.6087,0,0.624,0.6269,0.6319,0.6304,0.6312,0.6362,0.63,0.6317,0.6269,0.6234,0.629,0.6264,0.6271,0.6286,0.6239,0.6354,0.6326,0.6265,0.6174,0.632,0.6372,0.6393,0.6102,0.6099,0.6097,0.6094,0,0,0.6495,0.6441,0.6461,0.6453,0.6422,0.6443,0.6491,0.6496,0.6513,0.6506,0.6544,0.6575,0.6518,0.6518,0.647,0.6513,0.6648,0.6446,0.6445,0.6485,0.6774,0.6821,0.6847,0.6607,0.6611,0.6614,0.6776,0,0.6654,0.6729,0.6667,0.6755,0.6781,0.669,0.6731,0.6717,0.6687,0.6706,0.6673,0.6696,0.6619,0.6618,0.6657,0.6624,0.6705,0.6611,0.6644,0.6646,0.6651,0.6874,0.6923,0.7076,0.6795,0.6799,0.6801,0,0.6849,0.685,0.694,0.6903,0.6912,0.695,0.6951,0.697,0.6954,0.6928,0.693,0.6871,0.6916,0.6828,0.6891,0.6829,0.6839,0.6825,0.6829,0.683,0.6733,0.6881,0.7124,0.7147,0.6832,0.683,0.6827,0,0.7028,0.7051,0.7107,0.7104,0.7063,0.7092,0.7076,0.7055,0.7063,0.7065,0.7069,0.7078,0.7082,0.7091,0.7037,0.6977,0.7108,0.7014,0.7089,0.7091,0.7121,0.712,0.7369,0.7128,0.7127,0.7127,0.7126,0,0.7212,0.7271,0.7187,0.7222,0.7286,0.7215,0.7281,0.7256,0.7239,0.7269,0.7191,0.7221,0.7148,0.7171,0.713,0.7189,0.7192,0.7174,0.7162,0.7181,0.7184,0.7187,0.7175,0.7133,0.7131,0.713,0.7129,0,0.7421,0.7367,0.7423,0.738,0.737,0.742,0.7383,0.7415,0.7379,0.7419,0.7424,0.7369,0.7393,0.7339,0.7356,0.7328,0.7413,0.7384,0.7418,0.7409,0.7488,0.7481,0.7748,0.778,0.7518,0.7521,0.7523,0,0.7542,0.7585,0.7546,0.756,0.7548,0.7572,0.7579,0.7512,0.7523,0.7509,0.7543,0.756,0.757,0.7613,0.7576,0.7589,0.756,0.7653,0.7562,0.758,0.7562,0.756,0.7565,0.7672,0.7675,0.7677,0.768,0,0.7763,0.7734,0.7747,0.7752,0.7762,0.7763,0.7758,0.7775,0.7704,0.7721,0.7743,0.7751,0.7768,0.7787,0.7791,0.7777,0.7718,0.7709,0.7727,0.7746,0.7764,0.7756,0.747,0.7703,0.77,0.7699,0.7697,0.7697,0.7931,0.7965,0.7944,0.7961,0.7951,0.7948,0.7976,0.7944,0.7961,0.7968,0.7928,0.7961,0.7945,0.7944,0.7937,0.7963,0.7921,0.7947,0.7954,0.7961,0.7974,0.7761,0.7963,0.7962,0.7962,0.7961,0.7961,0,0.8148,0.8129,0.8146,0.8142,0.8157,0.8097,0.809,0.8107,0.8135,0.8124,0.8136,0.8163,0.8181,0.8146,0.8159,0.8186,0.8159,0.8192,0.8189,0.8188,0.801,0.7994,0.8214,0.8214,0.8214,0.8213,0.8213,0.8213,0.8262,0.8317,0.8287,0.8337,0.8318,0.8348,0.8349,0.8347,0.8338,0.8372,0.8386,0.8362,0.8342,0.8353,0.8368,0.8358,0.8367,0.8409,0.8389,0.8225,0.82,0.8176,0.816,0.8411,0.8412,0.8564,0.8565,0.8566]}]]